{"data":{"norad_id":65177,"intl_designator":"2025-175D","name":"STARLINK-34967","alt_names":[],"object_type":"PAYLOAD","status":"ACTIVE","operator":null,"country":"US","launch_date":"2025-08-14","launch_site_code":"AFWTR","launch_vehicle":null,"mission":null,"orbit_class":"UNKNOWN","rcs_meters":null,"size_class":null,"mass_kg":null,"dimensions":null,"purposes":["comms"],"wikipedia_slug":null,"has_3d_model":false,"image_url":null,"decayed_at":null,"tle_current":{"epoch":"2026-05-25T02:18:10.944000Z","epoch_age_seconds":77280,"freshness":"FRESH","line1":"1 65177U 25175D   26145.09596000  .00003144  00000+0  22182-3 0  9992","line2":"2 65177  97.4523  17.5348 0002297  82.4919 277.6569 15.05658077 44137","mean_motion":15.05658077,"eccentricity":0.0002297,"inclination_deg":97.4523,"raan_deg":17.5348,"arg_perigee_deg":82.4919,"mean_anomaly_deg":277.6569,"bstar":0.00022182,"rev_number":4413,"period_min":95.639243862669,"perigee_km":547.89510366303,"apogee_km":551.07765384323,"semimajor_km":6927.6233787531,"source":"CELESTRAK","updated_at":"2026-05-25T13:38:20.689317Z"}}}